Regional Weather Roundup
Issued by NWS Northern Indiana

Home | Current Version | Previous Version | Graphics & Text | Print | Product List | Glossary On
Versions: 1 2 3 4 5 6 7 8 9 10 11 12 13 14 15 16 17 18 19 20 21 22 23 24 25 26 27 28 29 30 31 32 33 34 35 36 37 38 39 40 41 42 43 44 45 46 47 48 49 50
000
ASUS43 KIWX 251900
RWRIWX

KIWX WEATHER ROUNDUP
NATIONAL WEATHER SERVICE NORTHERN INDIANA
300 PM EDT MON JUL 25 2016

NOTE: "FAIR" INDICATES FEW OR NO CLOUDS BELOW 12,000 FEET WITH NO
SIGNIFICANT WEATHER AND/OR OBSTRUCTIONS TO VISIBILITY.

* THESE STATIONS ARE NOT UNDER NWS QUALITY CONTROL. THEY ALSO MAY NOT
  REPORT WEATHER SUCH AS PRECIPITATION OR FOG.

INZ001>027-252000-
NORTHERN INDIANA

CITY           SKY/WX    TMP DP  RH WIND       PRES   REMARKS
GARY*          MOSUNNY   82 N/A N/A NE6       30.03S
KNOX*          CLOUDY    82  55  39 CALM      30.02S
SOUTH BEND     CLOUDY    82  67  60 NW12      30.02S
ELKHART*       MOSUNNY   84  68  58 W9        30.01S
GOSHEN         CLOUDY    86  61  42 W10       30.00S
MONTICELLO*    CLOUDY    82  69  65 NW6       30.01F
WARSAW*        CLOUDY    82  70  65 W6        30.01S
ANGOLA*          N/A     84  81  89 W9        29.99F HX  98
FORT WAYNE     PTSUNNY   86  71  60 W7        30.00F
PERU/GRISSOM   MOSUNNY   83  73  71 W8        30.00F

$$
INZ028>050-252000-
CENTRAL INDIANA

CITY           SKY/WX    TMP DP  RH WIND       PRES   REMARKS
LAFAYETTE      PTSUNNY   83  73  72 NW10      30.00F
KOKOMO*        PTSUNNY   86  70  58 N9        30.00F
MUNCIE*        PTSUNNY   86  72  62 W10       30.00F
INDIANAPOLIS   PTSUNNY   87  69  54 W8        30.01F

$$
MIZ043>046-050>051-056>058-064>065-071>073-077>080-252000-
SOUTHWEST LOWER MICHIGAN

CITY           SKY/WX    TMP DP  RH WIND       PRES   REMARKS
BATTLE CREEK   MOSUNNY   83  65  54 NW7       29.99S
BENTON HARBOR  SUNNY     80  66  62 VRB5      30.01S
COLDWATER*     CLOUDY    85  62  46 W10       29.99S
HOLLAND        SUNNY     81  66  60 NW6       30.00S
GRAND RAPIDS   MOSUNNY   86  62  44 W7        29.97S
KALAMAZOO      MOSUNNY   86  64  47 NW12      29.99S
STURGIS*       CLOUDY    84  64  50 NW6       29.99S
THREE RIVERS*  FAIR      86  64  48 W12G17    30.00S

$$
OHZ001>008-015>018-024>025-252000-
NORTHWEST OHIO

CITY           SKY/WX    TMP DP  RH WIND       PRES   REMARKS
DEFIANCE       CLOUDY    87  69  54 VRB7      29.97F
FINDLAY        MOSUNNY   88  66  48 SW10      29.97F
TOLEDO EXPRESS CLOUDY    85  73  67 W12       29.96S
TOLEDO METCALF PTSUNNY   87  71  58 W14       29.96S
LIMA           MOSUNNY   85  68  56 SW8       30.00F

$$
AND FOR LAKE MICHIGAN COASTAL AND OPEN LAKE BUOY OBSERVATIONS

STATION/POSITION TEMP    WIND        PRES    VSBY  WAVE
                 AIR SEA DIR/SP/G                  HT/PER
                 (F)     (DEG/KT/KT) (MB)    (MI)  (FT/S)
CALUMET HARBOR    77      70/  5/  6 1016.2R
MICHIGAN CITY     78     310/  2/  3   N/A
BURNS HARBOR      75      20/  4/  6 1017.3R
SAINT JOSEPH      76     330/  4/  6 1017.6R
SOUTH LAKE BUOY   73 73  280/  2/  4 1015.4          1/ 4
4 MI NW BRIDGMAN  74 75  320/  6/  8 1016.3R         1/ 4
MICHIGAN CITY     75 75  310/  2/  4   N/A           1/ 3

$$
&&




USA.gov is the U.S. government's official web portal to all federal, state and local government web resources and services.